NOAA 16 DEB, 41717

Orbit data source: Space-Track

NOAA 16 DEB, 41717 is space debris in SSO originally from a launch on Thu, 21 Sep 2000 UTC launched from the Air Force Western Test Range (AFWTR). Debris objects in space refer to the collection of defunct objects orbiting the Earth. Examples of debris include non-operational satellites, rocket bodies, and fragments generated from explosions, collisions, or faulty payload assembly.

Loading next visibility...
Identifier
41717, 2000-055PX
Orbit
SSO
Country
Flag of USUS
Related business
Manufacturer
Unknown
Mission
Spacecraft
Bus & Motor
Unknown
Mass
Unknown
Launch date (UTC)
2000-09-21 (26 years ago)
Launch vehicle
Unknown
Launch site
Air Force Western Test Range (AFWTR)
Object type
Payload
Rocket body
Debris
Shape & HBR
Unknown shape, 0.1 m
Radar Cross Section
Small (<0.1 m²)

Expand to show TLE details & history
Last TLE update: 2 days ago

TLE from 2 days ago
0 NOAA 16 DEB
1 41717U 00055PX  26125.35306928  .00015857  00000-0  37044-2 0  9998
2 41717  98.8304 269.6008 0014702 212.4445 147.5848 14.54696803523273
Epoch: 2026-05-05T08:28Z
TLE epoch observation values (Epoch: 2026-05-05T08:28:25.185Z)
Latitude
-0°
Longitude
-80.73327°
Altitude
722.111 km
Speed
7.49 km/s
True Right ascension
17h 58m 24s
True Declination
0° 00' 00"
Sunlit
Object was in full shadow at epoch
Visualization orbit readout
Latitude
Unknown
Longitude
Unknown
Altitude
Unknown
Speed
Unknown
Apparent Right ascension
Unknown
Apparent Declination
Unknown
Sunlit
N/A
Visualization observer readout
Local Sidereal Time
11:02:04
Azimuth
Unknown
Elevation
Unknown
Doppler factor
Unknown
Orbital elements
Apogee altitude
717.885 km
Perigee altitude
697.051 km
Semi-major axis
7,085.605 km
Eccentricity
0.00147
Inclination
98.8304°
RAAN
269.6008°
Arg. of periapsis
212.4445°
True anomaly
147.67497°
Mean anomaly
147.5848°
Eccentric anomaly
147.6299°
Mean motion
3.63896 °/min
Orbital period
98.93 mins
BSTAR
0.0037044
Loading maneuver chart data...
Computing Atmospheric mass density...
Loading historical data...
Loading historical data...
Loading historical data...
Loading historical data...
Loading historical data...
Loading historical data...
Loading historical data...

Documentation

Showing up to 5 results
|